Hourly Data Report for August 16, 2003

TORONTO CITY
ONTARIO

43°40'00.000" N
79°24'00.000" W
112.50 m
6158355
71508
XTO

Download Data

Hourly Data (August 2003)
Hourly Data Report for August 16, 2003
TIME
LST
Temp Definition
°C
Dew Point Definition
°C
Rel Hum Definition
%
Precip. Amount Definition
mm

Wind Dir Definition
10's deg

Wind Spd Definition
km/h
Visibility Definition
km
Stn Press Definition
kPa
Hmdx Definition


Wind Chill Definition


Weather Definition


00:00 25.7 21.8 79   LegendMM LegendMM LegendMM 100.00 35   LegendNANA
01:00
02:00 25.4 22.2 82   LegendMM LegendMM LegendMM 99.84 35   LegendNANA
03:00 25.0 22.1 84   LegendMM LegendMM LegendMM 99.75 34   LegendNANA
04:00 24.0 21.6 86   LegendMM LegendMM LegendMM 99.77 33   LegendNANA
05:00 23.6 21.5 88   LegendMM LegendMM LegendMM 99.73 32   LegendNANA
06:00 23.3 21.3 89   LegendMM LegendMM LegendMM 99.73 32   LegendNANA
07:00 23.6 21.3 87   LegendMM LegendMM LegendMM 99.77 32   LegendNANA
08:00 21.9 20.8 93   LegendMM LegendMM LegendMM 99.75 30   LegendNANA
09:00 22.2 20.9 92   LegendMM LegendMM LegendMM 99.77 31   LegendNANA
10:00 23.8 21.7 88   LegendMM LegendMM LegendMM 99.76 33   LegendNANA
11:00 25.8 20.9 74   LegendMM LegendMM LegendMM 99.73 34   LegendNANA
12:00 27.4 18.8 59   LegendMM LegendMM LegendMM 99.70 34   LegendNANA
13:00 28.5 19.5 58   LegendMM LegendMM LegendMM 99.65 36   LegendNANA
14:00 28.8 17.9 52   LegendMM LegendMM LegendMM 99.65 35   LegendNANA
15:00 28.7 17.7 51   LegendMM LegendMM LegendMM 99.60 34   LegendNANA
16:00 27.9 18.1 55   LegendMM LegendMM LegendMM 99.54 34   LegendNANA
17:00 27.1 18.8 60   LegendMM LegendMM LegendMM 99.58 34   LegendNANA
18:00 26.0 18.6 64   LegendMM LegendMM LegendMM 99.61 32   LegendNANA
19:00
20:00 24.2 17.0 64   LegendMM LegendMM LegendMM 99.74 29   LegendNANA
21:00 22.3 18.2 78   LegendMM LegendMM LegendMM 99.81 28   LegendNANA
22:00 22.0 18.1 79   LegendMM LegendMM LegendMM 99.81 28   LegendNANA
23:00 21.6 15.2 67   LegendMM LegendMM LegendMM 99.86 26   LegendNANA

Notes on Data Quality.

Legend

  • E = Estimated
  • M = Missing
  • NA = Not Available*
  • [empty] = Indicates an unobserved value
Date modified: